Salina, KS

7:55 PM CDT on June 27, 2017 (GMT -0500)
Salina Municipal

Weather History for KSLN - March, 2014

Change the Weather History Date:

Thursday, March 13, 2014

  Actual Average Record
Temperature  
Mean Temperature 50 °F 45 °F  
Max Temperature 73 °F 56 °F 87 °F (1918)
Min Temperature 28 °F 33 °F 7 °F (1950)
Degree Days  
Heating Degree Days 14 20  
Month to date heating degree days 293  
Since 1 July heating degree days 4134  
Cooling Degree Days 0 0  
Month to date cooling degree days 0  
Year to date cooling degree days 0  
Moisture  
Dew Point 20 °F    
Average Humidity 35    
Maximum Humidity 69    
Minimum Humidity 11    
Precipitation  
Precipitation 0.00 in 0.08 in 0.61 in (1953)
Month to date precipitation 0.86  
Year to date precipitation 2.66  
Sea Level Pressure  
Sea Level Pressure 29.99 in    
Wind  
Wind Speed 11 mph (SSW)    
Max Wind Speed 23 mph    
Max Gust Speed 38 mph    
Visibility 10 miles    
Events      
T = Trace of Precipitation, MM = Missing Value Source: NWS Daily Summary

Daily Weather History Graph

Daily Weather History Graph

Search for Another Location

Airport or City:

Trip Planner

Search our weather history database for the weather conditions in past years. The results will help you decide how hot, cold, wet, or windy it might be!

Date:

Astronomy

Mar. 13, 2014 Rise Set
Actual Time 7:44 AM CDT 7:35 PM CDT
Civil Twilight 7:18 AM CDT 8:02 PM CDT
Nautical Twilight 6:47 AM CDT 8:33 PM CDT
Astronomical Twilight 6:16 AM CDT 9:04 PM CDT
Moon 5:04 PM CDT (3/13) 5:51 AM CDT (3/13)
Length of Visible Light 12h 43m
Length of Day
11h 50m
Waxing Gibbous, 91% of the Moon is Illuminated
Mar 13
Waxing Gibbous
Mar 16
Full
Mar 23
Last Quarter
Mar 30
New
Apr 7
First Quarter

Hourly Weather History & Observations

Time (CDT) Temp. Windchill Dew Point Humidity Pressure Visibility Wind Dir Wind Speed Gust Speed Precip Events Conditions
12:53 AM 39.0 °F 32.3 °F 23.0 °F 53% 30.15 in 10.0 mi SW 10.4 mph - N/A   Clear
1:53 AM 39.0 °F 31.4 °F 23.0 °F 53% 30.13 in 10.0 mi SW 12.7 mph - N/A   Clear
2:53 AM 39.0 °F 31.0 °F 21.9 °F 50% 30.13 in 10.0 mi SW 13.8 mph - N/A   Clear
3:53 AM 37.0 °F 34.5 °F 21.0 °F 52% 30.12 in 10.0 mi SW 3.5 mph - N/A   Clear
4:53 AM 37.0 °F 32.4 °F 19.9 °F 50% 30.11 in 10.0 mi WSW 5.8 mph - N/A   Clear
5:53 AM 35.1 °F - 21.0 °F 57% 30.11 in 10.0 mi Calm Calm - N/A   Clear
6:53 AM 33.1 °F 27.7 °F 19.9 °F 59% 30.12 in 10.0 mi SW 5.8 mph - N/A   Clear
7:53 AM 28.9 °F - 19.9 °F 69% 30.14 in 10.0 mi Calm Calm - N/A   Clear
8:53 AM 36.0 °F 32.1 °F 21.9 °F 57% 30.14 in 10.0 mi SW 4.6 mph - N/A   Clear
9:53 AM 43.0 °F 38.8 °F 25.0 °F 49% 30.14 in 10.0 mi SSW 6.9 mph - N/A   Clear
10:53 AM 51.1 °F - 27.0 °F 39% 30.11 in 10.0 mi Variable 3.5 mph - N/A   Clear
11:53 AM 57.9 °F - 26.1 °F 30% 30.09 in 10.0 mi Variable 5.8 mph - N/A   Clear
12:53 PM 64.0 °F - 21.9 °F 20% 30.04 in 10.0 mi SW 13.8 mph - N/A   Scattered Clouds
1:53 PM 68.0 °F - 17.1 °F 14% 30.00 in 10.0 mi SW 18.4 mph 23.0 mph 0.00 in   Clear
2:53 PM 71.1 °F - 12.9 °F 11% 29.94 in 10.0 mi SSW 18.4 mph 26.5 mph 0.00 in   Clear
3:53 PM 73.0 °F - 14.0 °F 11% 29.89 in 10.0 mi SSW 21.9 mph 34.5 mph N/A   Clear
4:53 PM 72.0 °F - 17.1 °F 12% 29.86 in 10.0 mi SSW 19.6 mph 38.0 mph N/A   Clear
5:53 PM 71.1 °F - 14.0 °F 11% 29.83 in 10.0 mi SSW 23.0 mph 32.2 mph 0.00 in   Clear
6:53 PM 66.9 °F - 18.0 °F 15% 29.82 in 10.0 mi South 13.8 mph 26.5 mph N/A   Clear
7:53 PM 59.0 °F - 19.9 °F 22% 29.82 in 10.0 mi South 10.4 mph - N/A   Clear
8:53 PM 55.9 °F - 19.9 °F 25% 29.79 in 10.0 mi SSE 12.7 mph - N/A   Clear
9:53 PM 57.0 °F - 19.9 °F 24% 29.77 in 10.0 mi South 17.3 mph - N/A   Clear
10:53 PM 57.0 °F - 19.9 °F 24% 29.74 in 10.0 mi South 20.7 mph 29.9 mph N/A   Clear
11:53 PM 55.0 °F - 19.9 °F 25% 29.73 in 10.0 mi South 19.6 mph 26.5 mph 0.00 in   Clear